15min,AgWx,beryljct,423,12JAN2017:00:00:00,40.9,32.0,70,0,18.5,14.2,167,0.00,0.00,0.00,35.6,37.4,29
15min,AgWx,beryljct,423,12JAN2017:00:15:00,40.9,32.5,72,0,16.9,14.0,175,0.00,0.00,0.00,35.4,37.3,29
15min,AgWx,beryljct,423,12JAN2017:00:30:00,41.2,32.6,72,0,19.9,15.2,175,0.00,0.00,0.00,35.4,37.4,29
15min,AgWx,beryljct,423,12JAN2017:00:45:00,41.4,32.4,71,0,21.2,16.2,169,0.00,0.00,0.00,35.4,37.3,28
15min,AgWx,beryljct,423,12JAN2017:01:00:00,41.2,32.6,72,0,17.6,12.1,175,0.00,0.00,0.00,35.3,37.2,28
15min,AgWx,beryljct,423,12JAN2017:01:15:00,40.7,32.3,72,0,19.2,12.8,168,0.00,0.00,0.00,35.3,37.2,28
15min,AgWx,beryljct,423,12JAN2017:01:30:00,40.6,32.1,71,0,20.8,13.1,173,0.00,0.00,0.00,35.3,37.2,28
15min,AgWx,beryljct,423,12JAN2017:01:45:00,40.8,31.8,70,0,16.2,9.8,177,0.00,0.00,0.00,35.4,37.1,28
15min,AgWx,beryljct,423,12JAN2017:02:00:00,40.7,31.6,69,0,20.0,14.3,171,0.00,0.00,0.00,35.4,37.1,29
15min,AgWx,beryljct,423,12JAN2017:02:15:00,40.4,31.5,70,0,18.0,12.7,169,0.00,0.00,0.00,35.3,37.1,29
15min,AgWx,beryljct,423,12JAN2017:02:30:00,40.6,31.3,69,0,24.2,15.9,168,0.00,0.00,0.00,35.4,37.0,29
15min,AgWx,beryljct,423,12JAN2017:02:45:00,40.1,30.9,69,0,17.0,12.9,172,0.00,0.00,0.00,35.3,37.0,28
15min,AgWx,beryljct,423,12JAN2017:03:00:00,39.8,31.3,71,0,12.8,9.7,180,0.00,0.00,0.00,35.2,37.0,29
15min,AgWx,beryljct,423,12JAN2017:03:15:00,39.0,31.8,74,0,12.2,9.7,171,0.00,0.00,0.00,35.2,36.9,28
15min,AgWx,beryljct,423,12JAN2017:03:30:00,37.1,32.1,80,0,9.6,8.2,153,0.00,0.00,0.00,35.2,36.9,29
15min,AgWx,beryljct,423,12JAN2017:03:45:00,37.3,32.6,83,0,9.3,7.7,169,0.00,0.00,0.00,35.1,36.9,29
15min,AgWx,beryljct,423,12JAN2017:04:00:00,37.2,32.5,83,0,9.4,7.8,178,0.00,0.00,0.00,35.2,36.9,29
15min,AgWx,beryljct,423,12JAN2017:04:15:00,38.3,32.6,81,0,10.2,7.6,171,0.00,0.00,0.00,35.1,36.9,29
15min,AgWx,beryljct,423,12JAN2017:04:30:00,37.7,32.4,81,0,6.0,3.7,175,0.00,0.00,0.00,35.0,36.8,28
15min,AgWx,beryljct,423,12JAN2017:04:45:00,36.4,32.3,82,0,3.5,1.5,76,0.00,0.00,0.00,35.1,36.8,29
15min,AgWx,beryljct,423,12JAN2017:05:00:00,35.5,31.7,86,0,4.4,3.3,56,0.00,0.00,0.00,34.9,36.8,28
15min,AgWx,beryljct,423,12JAN2017:05:15:00,35.5,31.7,86,0,2.2,0.7,134,0.00,0.00,0.00,34.8,36.8,29
15min,AgWx,beryljct,423,12JAN2017:05:30:00,37.1,32.1,85,0,7.0,3.6,175,0.00,0.00,0.00,34.9,36.8,29
15min,AgWx,beryljct,423,12JAN2017:05:45:00,36.6,32.4,83,0,7.7,6.1,165,0.00,0.00,0.00,34.7,36.8,29
15min,AgWx,beryljct,423,12JAN2017:06:00:00,38.1,32.5,83,0,8.0,6.3,175,0.00,0.00,0.00,34.7,36.7,29
15min,AgWx,beryljct,423,12JAN2017:06:15:00,38.4,32.7,80,0,9.0,6.9,185,0.00,0.00,0.00,34.6,36.7,29
15min,AgWx,beryljct,423,12JAN2017:06:30:00,38.1,32.9,82,0,9.6,7.2,196,0.00,0.00,0.00,34.5,36.7,29
15min,AgWx,beryljct,423,12JAN2017:06:45:00,38.0,32.6,80,0,8.7,7.0,195,0.00,0.00,0.00,34.5,36.6,29
15min,AgWx,beryljct,423,12JAN2017:07:00:00,37.8,32.4,80,0,10.9,8.0,182,0.00,0.00,0.00,34.5,36.6,29
15min,AgWx,beryljct,423,12JAN2017:07:15:00,38.1,32.5,81,0,13.5,9.4,179,0.00,0.00,0.00,34.4,36.6,28
15min,AgWx,beryljct,423,12JAN2017:07:30:00,38.5,32.6,80,0,11.2,8.3,187,0.00,0.00,0.00,34.4,36.5,28
15min,AgWx,beryljct,423,12JAN2017:07:45:00,39.3,32.6,78,0,10.8,8.0,191,0.00,0.00,0.00,34.4,36.5,28
15min,AgWx,beryljct,423,12JAN2017:08:00:00,39.1,32.6,77,2,11.3,8.0,194,0.00,0.00,0.00,34.4,36.5,29
15min,AgWx,beryljct,423,12JAN2017:08:15:00,39.3,32.6,77,8,10.9,8.3,187,0.00,0.00,0.00,34.3,36.5,29
15min,AgWx,beryljct,423,12JAN2017:08:30:00,38.1,33.3,80,8,14.3,9.8,175,0.00,0.00,0.00,34.4,36.5,29
15min,AgWx,beryljct,423,12JAN2017:08:45:00,37.8,34.1,86,14,14.5,9.8,176,0.00,0.00,0.00,34.4,36.4,28
15min,AgWx,beryljct,423,12JAN2017:09:00:00,38.5,34.5,87,22,11.7,7.2,185,0.00,0.00,0.00,34.4,36.4,28
15min,AgWx,beryljct,423,12JAN2017:09:15:00,38.1,34.6,86,15,13.3,9.8,205,0.00,0.00,0.00,34.5,36.4,29
15min,AgWx,beryljct,423,12JAN2017:09:30:00,37.7,34.9,89,20,11.4,7.4,208,0.02,0.02,0.02,34.5,36.3,28
15min,AgWx,beryljct,423,12JAN2017:09:45:00,37.3,35.0,90,26,7.7,5.8,210,0.00,0.02,0.02,34.6,36.3,28
15min,AgWx,beryljct,423,12JAN2017:10:00:00,36.4,34.5,90,24,9.3,7.0,212,0.01,0.03,0.03,34.6,36.3,28
15min,AgWx,beryljct,423,12JAN2017:10:15:00,37.3,34.8,92,76,7.7,6.1,195,0.02,0.05,0.05,34.6,36.3,29
15min,AgWx,beryljct,423,12JAN2017:10:30:00,38.5,35.1,90,113,8.0,6.2,182,0.00,0.03,0.05,34.7,36.3,29
15min,AgWx,beryljct,423,12JAN2017:10:45:00,38.6,35.6,89,126,9.1,7.3,175,0.00,0.03,0.05,34.8,36.3,29
15min,AgWx,beryljct,423,12JAN2017:11:00:00,38.8,36.1,90,129,10.2,8.0,171,0.00,0.02,0.05,34.8,36.3,29
15min,AgWx,beryljct,423,12JAN2017:11:15:00,38.9,36.1,90,80,12.4,8.2,179,0.00,0.00,0.05,35.1,36.2,29
15min,AgWx,beryljct,423,12JAN2017:11:30:00,38.5,34.9,86,71,16.4,10.2,190,0.00,0.00,0.05,35.2,36.2,29
15min,AgWx,beryljct,423,12JAN2017:11:45:00,38.9,34.0,83,107,16.2,12.9,186,0.00,0.00,0.05,35.3,36.2,28
15min,AgWx,beryljct,423,12JAN2017:12:00:00,39.0,33.8,82,164,20.7,14.7,175,0.00,0.00,0.05,35.5,36.2,29
15min,AgWx,beryljct,423,12JAN2017:12:15:00,39.4,34.5,83,165,15.0,12.2,172,0.00,0.00,0.05,35.6,36.3,28
15min,AgWx,beryljct,423,12JAN2017:12:30:00,40.3,33.4,78,109,15.8,10.3,170,0.00,0.00,0.05,35.7,36.3,29
15min,AgWx,beryljct,423,12JAN2017:12:45:00,40.9,33.3,76,160,13.2,9.9,172,0.00,0.00,0.05,35.8,36.2,28
15min,AgWx,beryljct,423,12JAN2017:13:00:00,40.6,31.9,70,156,14.8,10.3,173,0.00,0.00,0.05,36.0,36.2,29
15min,AgWx,beryljct,423,12JAN2017:13:15:00,40.2,33.3,76,120,19.8,13.5,165,0.00,0.00,0.05,36.2,36.3,28
15min,AgWx,beryljct,423,12JAN2017:13:30:00,40.3,35.0,81,282,19.4,14.2,157,0.00,0.00,0.05,36.3,36.3,29
15min,AgWx,beryljct,423,12JAN2017:13:45:00,39.5,35.6,86,273,19.4,15.6,155,0.00,0.00,0.05,36.4,36.3,28
15min,AgWx,beryljct,423,12JAN2017:14:00:00,38.0,35.3,87,145,20.3,15.8,160,0.00,0.00,0.05,36.6,36.3,28
15min,AgWx,beryljct,423,12JAN2017:14:15:00,38.1,34.7,88,98,17.7,11.6,167,0.00,0.00,0.05,36.8,36.3,29
15min,AgWx,beryljct,423,12JAN2017:14:30:00,39.2,34.7,85,104,12.9,6.8,173,0.00,0.00,0.05,36.9,36.4,28
15min,AgWx,beryljct,423,12JAN2017:14:45:00,39.2,34.5,83,94,12.4,8.7,198,0.00,0.00,0.05,37.0,36.4,29
15min,AgWx,beryljct,423,12JAN2017:15:00:00,37.9,34.2,84,45,18.8,11.4,190,0.00,0.00,0.05,37.1,36.5,29
15min,AgWx,beryljct,423,12JAN2017:15:15:00,37.6,34.7,89,60,11.6,8.9,207,0.01,0.01,0.06,37.3,36.5,29
15min,AgWx,beryljct,423,12JAN2017:15:30:00,34.7,34.2,92,34,11.9,9.1,198,0.02,0.03,0.08,37.3,36.6,28
15min,AgWx,beryljct,423,12JAN2017:15:45:00,35.6,33.7,96,81,9.9,5.0,216,0.03,0.06,0.11,37.3,36.6,29
15min,AgWx,beryljct,423,12JAN2017:16:00:00,36.7,34.8,94,80,10.0,6.5,225,0.00,0.06,0.11,37.3,36.6,29
15min,AgWx,beryljct,423,12JAN2017:16:15:00,37.2,35.0,93,96,8.9,5.8,199,0.00,0.05,0.11,37.2,36.6,29
15min,AgWx,beryljct,423,12JAN2017:16:30:00,37.0,35.1,93,64,8.6,6.3,178,0.00,0.03,0.11,37.2,36.7,29
15min,AgWx,beryljct,423,12JAN2017:16:45:00,37.1,34.8,92,66,7.4,4.3,170,0.00,0.00,0.11,37.2,36.7,29
15min,AgWx,beryljct,423,12JAN2017:17:00:00,36.9,35.2,93,35,4.0,3.2,215,0.00,0.00,0.11,37.2,36.8,29
15min,AgWx,beryljct,423,12JAN2017:17:15:00,37.0,35.0,92,12,5.6,3.9,220,0.00,0.00,0.11,37.2,36.8,29
15min,AgWx,beryljct,423,12JAN2017:17:30:00,37.5,35.0,92,7,8.1,5.4,219,0.00,0.00,0.11,37.2,36.8,29
15min,AgWx,beryljct,423,12JAN2017:17:45:00,37.4,34.7,90,1,10.3,7.7,211,0.00,0.00,0.11,37.2,36.9,29
15min,AgWx,beryljct,423,12JAN2017:18:00:00,37.1,34.4,89,0,10.4,7.8,198,0.00,0.00,0.11,37.1,36.9,28
15min,AgWx,beryljct,423,12JAN2017:18:15:00,36.7,34.4,91,0,8.1,5.8,187,0.00,0.00,0.11,37.1,36.9,29
15min,AgWx,beryljct,423,12JAN2017:18:30:00,36.6,34.4,92,0,6.2,3.3,182,0.00,0.00,0.11,37.0,37.0,29
15min,AgWx,beryljct,423,12JAN2017:18:45:00,36.3,34.5,93,0,2.1,1.5,181,0.00,0.00,0.11,36.8,37.0,29
15min,AgWx,beryljct,423,12JAN2017:19:00:00,36.0,34.5,94,0,2.5,1.6,140,0.00,0.00,0.11,36.9,37.0,29
15min,AgWx,beryljct,423,12JAN2017:19:15:00,36.0,34.7,95,0,2.8,1.9,168,0.00,0.00,0.11,36.7,37.1,29
15min,AgWx,beryljct,423,12JAN2017:19:30:00,35.7,34.8,96,0,3.5,1.0,117,0.00,0.00,0.11,36.7,37.1,29
15min,AgWx,beryljct,423,12JAN2017:19:45:00,35.3,34.9,98,0,4.1,2.6,37,0.00,0.00,0.11,36.6,37.0,29
15min,AgWx,beryljct,423,12JAN2017:20:00:00,35.2,34.9,99,0,5.4,4.0,44,0.00,0.00,0.11,36.5,37.1,29
15min,AgWx,beryljct,423,12JAN2017:20:15:00,35.8,35.2,99,0,3.8,2.5,93,0.00,0.00,0.11,36.4,37.1,29
15min,AgWx,beryljct,423,12JAN2017:20:30:00,35.8,35.2,98,0,3.3,2.1,202,0.00,0.00,0.11,36.4,37.1,29
15min,AgWx,beryljct,423,12JAN2017:20:45:00,36.2,35.3,97,0,3.9,2.8,142,0.00,0.00,0.11,36.3,37.0,29
15min,AgWx,beryljct,423,12JAN2017:21:00:00,35.3,35.1,98,0,7.3,5.7,53,0.00,0.00,0.11,36.3,37.1,29
15min,AgWx,beryljct,423,12JAN2017:21:15:00,35.4,35.3,100,0,5.3,3.9,56,0.00,0.00,0.11,36.2,37.1,29
15min,AgWx,beryljct,423,12JAN2017:21:30:00,35.2,35.4,100,0,4.8,3.1,46,0.01,0.01,0.12,36.2,37.1,29
15min,AgWx,beryljct,423,12JAN2017:21:45:00,35.4,35.4,100,0,7.8,5.3,60,0.00,0.01,0.12,36.2,37.1,29
15min,AgWx,beryljct,423,12JAN2017:22:00:00,35.2,35.4,100,0,9.6,7.2,58,0.00,0.01,0.12,36.1,37.1,29
15min,AgWx,beryljct,423,12JAN2017:22:15:00,35.0,35.1,100,0,8.4,6.5,53,0.00,0.01,0.12,36.1,37.1,29
15min,AgWx,beryljct,423,12JAN2017:22:30:00,34.9,34.9,100,0,9.1,6.5,58,0.02,0.02,0.14,36.1,37.0,29
15min,AgWx,beryljct,423,12JAN2017:22:45:00,34.6,34.8,100,0,8.0,6.1,55,0.00,0.02,0.14,35.9,37.1,29
15min,AgWx,beryljct,423,12JAN2017:23:00:00,34.7,34.7,100,0,7.1,5.7,54,0.00,0.02,0.14,36.0,37.1,29
15min,AgWx,beryljct,423,12JAN2017:23:15:00,34.7,34.7,100,0,6.1,3.8,57,0.01,0.03,0.15,35.9,37.0,29
15min,AgWx,beryljct,423,12JAN2017:23:30:00,34.7,34.7,100,0,6.6,4.8,59,0.00,0.01,0.15,35.9,37.1,29
15min,AgWx,beryljct,423,12JAN2017:23:45:00,34.9,34.7,100,0,5.9,4.5,70,0.00,0.01,0.15,35.8,37.0,29
15min,AgWx,birchsprings,428,12JAN2017:00:00:00,14.7,13.7,91,0,3.7,2.9,226,0.00,0.00,0.00,26.4,0.0,.
15min,AgWx,birchsprings,428,12JAN2017:00:15:00,13.8,11.8,92,0,4.5,2.1,256,0.00,0.00,0.00,26.3,0.0,.
15min,AgWx,birchsprings,428,12JAN2017:00:30:00,12.4,11.4,92,0,7.7,3.1,221,0.00,0.00,0.00,26.3,0.0,.
15min,AgWx,birchsprings,428,12JAN2017:00:45:00,12.1,10.1,91,0,5.5,3.3,224,0.00,0.00,0.00,26.3,0.0,.
15min,AgWx,birchsprings,428,12JAN2017:01:00:00,14.1,11.2,92,0,4.9,1.5,325,0.00,0.00,0.00,26.3,0.0,.
15min,AgWx,birchsprings,428,12JAN2017:01:15:00,14.7,12.6,92,0,8.4,3.5,236,0.00,0.00,0.00,26.2,0.0,.
15min,AgWx,birchsprings,428,12JAN2017:01:30:00,14.6,13.8,92,0,7.6,4.7,255,0.00,0.00,0.00,26.2,0.0,.
15min,AgWx,birchsprings,428,12JAN2017:01:45:00,14.2,11.3,89,0,5.2,3.2,250,0.00,0.00,0.00,26.3,0.0,.
15min,AgWx,birchsprings,428,12JAN2017:02:00:00,14.8,11.7,90,0,5.3,3.1,246,0.00,0.00,0.00,26.2,0.0,.
15min,AgWx,birchsprings,428,12JAN2017:02:15:00,14.9,12.2,90,0,6.2,3.6,291,0.00,0.00,0.00,26.2,0.0,.
15min,AgWx,birchsprings,428,12JAN2017:02:30:00,15.3,12.3,89,0,6.6,4.2,324,0.00,0.00,0.00,26.2,0.0,.
15min,AgWx,birchsprings,428,12JAN2017:02:45:00,14.0,11.5,88,0,5.4,3.3,243,0.00,0.00,0.00,26.2,0.0,.
15min,AgWx,birchsprings,428,12JAN2017:03:00:00,14.9,11.6,88,0,5.8,3.3,235,0.00,0.00,0.00,26.2,0.0,.
15min,AgWx,birchsprings,428,12JAN2017:03:15:00,14.4,11.4,87,0,7.7,4.7,288,0.00,0.00,0.00,26.1,0.0,.
15min,AgWx,birchsprings,428,12JAN2017:03:30:00,14.4,11.2,87,0,5.7,3.9,262,0.00,0.00,0.00,26.0,0.0,.
15min,AgWx,birchsprings,428,12JAN2017:03:45:00,13.7,10.9,87,0,6.2,3.4,235,0.00,0.00,0.00,26.1,0.0,.
15min,AgWx,birchsprings,428,12JAN2017:04:00:00,15.1,11.6,88,0,6.7,3.9,306,0.00,0.00,0.00,26.0,0.0,.
15min,AgWx,birchsprings,428,12JAN2017:04:15:00,14.5,11.7,87,0,6.4,3.4,269,0.00,0.00,0.00,26.0,0.0,.
15min,AgWx,birchsprings,428,12JAN2017:04:30:00,13.5,10.8,86,0,7.7,4.4,245,0.00,0.00,0.00,26.0,0.0,.
15min,AgWx,birchsprings,428,12JAN2017:04:45:00,13.5,9.6,87,0,5.2,3.0,270,0.00,0.00,0.00,26.0,0.0,.
15min,AgWx,birchsprings,428,12JAN2017:05:00:00,15.9,12.2,89,0,6.9,4.0,316,0.00,0.00,0.00,26.0,0.0,.
15min,AgWx,birchsprings,428,12JAN2017:05:15:00,16.7,13.2,87,0,7.3,3.8,310,0.00,0.00,0.00,25.9,0.0,.
15min,AgWx,birchsprings,428,12JAN2017:05:30:00,16.2,13.0,86,0,6.3,2.8,261,0.00,0.00,0.00,26.0,0.0,.
15min,AgWx,birchsprings,428,12JAN2017:05:45:00,16.1,13.0,87,0,3.3,1.4,299,0.00,0.00,0.00,25.9,0.0,.
15min,AgWx,birchsprings,428,12JAN2017:06:00:00,16.3,13.3,88,0,3.9,2.1,306,0.00,0.00,0.00,25.9,0.0,.
15min,AgWx,birchsprings,428,12JAN2017:06:15:00,16.3,13.4,88,0,5.6,2.8,282,0.00,0.00,0.00,25.9,0.0,.
15min,AgWx,birchsprings,428,12JAN2017:06:30:00,16.0,12.7,87,0,2.8,1.2,237,0.00,0.00,0.00,25.8,0.0,.
15min,AgWx,birchsprings,428,12JAN2017:06:45:00,15.9,13.4,88,0,6.9,2.6,272,0.00,0.00,0.00,25.8,0.0,.
15min,AgWx,birchsprings,428,12JAN2017:07:00:00,15.7,12.4,87,0,6.5,3.0,217,0.00,0.00,0.00,25.8,0.0,.
15min,AgWx,birchsprings,428,12JAN2017:07:15:00,16.3,12.9,87,0,5.1,3.2,267,0.00,0.00,0.00,25.8,0.0,.
15min,AgWx,birchsprings,428,12JAN2017:07:30:00,16.4,13.2,87,0,5.1,3.5,267,0.00,0.00,0.00,25.7,0.0,.
15min,AgWx,birchsprings,428,12JAN2017:07:45:00,16.8,13.3,87,1,4.8,3.1,263,0.00,0.00,0.00,25.8,0.0,.
15min,AgWx,birchsprings,428,12JAN2017:08:00:00,17.0,13.7,87,6,4.5,3.0,261,0.00,0.00,0.00,25.7,0.0,.
15min,AgWx,birchsprings,428,12JAN2017:08:15:00,17.2,13.4,86,17,4.5,2.9,245,0.00,0.00,0.00,25.8,0.0,.
15min,AgWx,birchsprings,428,12JAN2017:08:30:00,17.8,14.2,86,33,5.0,3.0,282,0.00,0.00,0.00,25.8,0.0,.
15min,AgWx,birchsprings,428,12JAN2017:08:45:00,18.6,14.4,85,53,5.6,3.8,280,0.00,0.00,0.00,25.7,0.0,.
15min,AgWx,birchsprings,428,12JAN2017:09:00:00,19.5,15.1,84,79,5.4,2.8,283,0.00,0.00,0.00,25.7,0.0,.
15min,AgWx,birchsprings,428,12JAN2017:09:15:00,19.7,15.5,84,99,5.6,3.4,284,0.00,0.00,0.00,25.6,0.0,.
15min,AgWx,birchsprings,428,12JAN2017:09:30:00,19.5,15.6,84,122,4.1,2.7,252,0.00,0.00,0.00,25.6,0.0,.
15min,AgWx,birchsprings,428,12JAN2017:09:45:00,21.3,16.2,84,137,4.5,3.1,263,0.00,0.00,0.00,25.6,0.0,.
15min,AgWx,birchsprings,428,12JAN2017:10:00:00,22.2,17.1,82,155,5.3,3.7,292,0.00,0.00,0.00,25.6,0.0,.
15min,AgWx,birchsprings,428,12JAN2017:10:15:00,23.0,17.6,81,178,4.9,3.2,286,0.00,0.00,0.00,25.7,0.0,.
15min,AgWx,birchsprings,428,12JAN2017:10:30:00,24.5,18.0,78,242,4.0,2.1,283,0.00,0.00,0.00,25.7,0.0,.
15min,AgWx,birchsprings,428,12JAN2017:10:45:00,25.7,17.6,72,238,2.8,1.3,265,0.00,0.00,0.00,25.7,0.0,.
15min,AgWx,birchsprings,428,12JAN2017:11:00:00,26.4,17.7,71,269,3.7,1.9,272,0.00,0.00,0.00,25.6,0.0,.
15min,AgWx,birchsprings,428,12JAN2017:11:15:00,27.0,18.6,71,285,5.0,3.5,263,0.00,0.00,0.00,25.6,0.0,.
15min,AgWx,birchsprings,428,12JAN2017:11:30:00,27.9,18.7,70,271,4.5,3.0,253,0.00,0.00,0.00,25.6,0.0,.
15min,AgWx,birchsprings,428,12JAN2017:11:45:00,28.3,19.4,70,253,4.3,2.9,272,0.00,0.00,0.00,25.6,0.0,.
15min,AgWx,birchsprings,428,12JAN2017:12:00:00,29.1,19.0,67,237,3.7,2.3,235,0.00,0.00,0.00,25.7,0.0,.
15min,AgWx,birchsprings,428,12JAN2017:12:15:00,29.8,19.2,65,219,3.4,2.4,206,0.00,0.00,0.00,25.6,0.0,.
15min,AgWx,birchsprings,428,12JAN2017:12:30:00,31.2,18.7,61,224,3.0,1.2,198,0.00,0.00,0.00,25.6,0.0,.
15min,AgWx,birchsprings,428,12JAN2017:12:45:00,31.1,19.0,59,235,3.0,1.0,76,0.00,0.00,0.00,25.6,0.0,.
15min,AgWx,birchsprings,428,12JAN2017:13:00:00,32.0,20.8,64,234,5.5,2.1,93,0.00,0.00,0.00,25.6,0.0,.
15min,AgWx,birchsprings,428,12JAN2017:13:15:00,32.0,22.8,69,232,6.9,4.1,106,0.00,0.00,0.00,25.7,0.0,.
15min,AgWx,birchsprings,428,12JAN2017:13:30:00,30.8,22.5,68,245,7.7,4.6,65,0.00,0.00,0.00,25.7,0.0,.
15min,AgWx,birchsprings,428,12JAN2017:13:45:00,31.7,23.0,71,232,7.8,3.7,78,0.00,0.00,0.00,25.6,0.0,.
15min,AgWx,birchsprings,428,12JAN2017:14:00:00,29.4,24.0,76,202,7.7,4.1,61,0.00,0.00,0.00,25.7,0.0,.
15min,AgWx,birchsprings,428,12JAN2017:14:15:00,29.7,23.9,79,218,7.2,4.6,51,0.00,0.00,0.00,25.7,0.0,.
15min,AgWx,birchsprings,428,12JAN2017:14:30:00,29.3,24.6,81,204,5.6,3.4,41,0.00,0.00,0.00,25.7,0.0,.
15min,AgWx,birchsprings,428,12JAN2017:14:45:00,28.9,24.2,82,198,5.7,4.0,22,0.00,0.00,0.00,25.6,0.0,.
15min,AgWx,birchsprings,428,12JAN2017:15:00:00,28.9,24.3,83,185,5.5,3.4,27,0.00,0.00,0.00,25.7,0.0,.
15min,AgWx,birchsprings,428,12JAN2017:15:15:00,28.9,24.1,82,151,4.6,3.3,40,0.00,0.00,0.00,25.7,0.0,.
15min,AgWx,birchsprings,428,12JAN2017:15:30:00,28.4,24.2,83,121,6.3,3.3,36,0.00,0.00,0.00,25.8,0.0,.
15min,AgWx,birchsprings,428,12JAN2017:15:45:00,27.8,23.5,83,98,6.2,4.1,26,0.00,0.00,0.00,25.9,0.0,.
15min,AgWx,birchsprings,428,12JAN2017:16:00:00,27.1,22.7,83,74,6.3,4.4,48,0.00,0.00,0.00,25.8,0.0,.
15min,AgWx,birchsprings,428,12JAN2017:16:15:00,26.2,22.2,83,51,6.7,4.5,28,0.00,0.00,0.00,25.9,0.0,.
15min,AgWx,birchsprings,428,12JAN2017:16:30:00,26.1,21.5,83,42,6.9,4.3,37,0.00,0.00,0.00,25.8,0.0,.
15min,AgWx,birchsprings,428,12JAN2017:16:45:00,25.8,21.7,84,30,5.1,3.3,45,0.00,0.00,0.00,25.8,0.0,.
15min,AgWx,birchsprings,428,12JAN2017:17:00:00,25.3,21.7,85,12,4.1,2.5,35,0.00,0.00,0.00,25.8,0.0,.
15min,AgWx,birchsprings,428,12JAN2017:17:15:00,25.0,21.6,87,4,5.4,2.5,50,0.00,0.00,0.00,25.9,0.0,.
15min,AgWx,birchsprings,428,12JAN2017:17:30:00,25.0,21.2,86,1,6.9,3.8,54,0.00,0.00,0.00,25.9,0.0,.
15min,AgWx,birchsprings,428,12JAN2017:17:45:00,25.1,21.2,85,0,6.5,3.6,52,0.00,0.00,0.00,25.9,0.0,.
15min,AgWx,birchsprings,428,12JAN2017:18:00:00,24.9,21.3,86,0,4.4,2.1,81,0.00,0.00,0.00,25.9,0.0,.
15min,AgWx,birchsprings,428,12JAN2017:18:15:00,24.7,21.5,87,0,4.2,2.5,83,0.00,0.00,0.00,25.9,0.0,.
15min,AgWx,birchsprings,428,12JAN2017:18:30:00,24.3,21.4,88,0,4.7,2.2,81,0.00,0.00,0.00,25.9,0.0,.
15min,AgWx,birchsprings,428,12JAN2017:18:45:00,23.7,20.7,87,0,5.0,3.3,30,0.00,0.00,0.00,26.0,0.0,.
15min,AgWx,birchsprings,428,12JAN2017:19:00:00,23.3,20.3,87,0,7.0,3.9,46,0.00,0.00,0.00,25.9,0.0,.
15min,AgWx,birchsprings,428,12JAN2017:19:15:00,23.0,20.1,88,0,6.7,3.6,36,0.00,0.00,0.00,26.0,0.0,.
15min,AgWx,birchsprings,428,12JAN2017:19:30:00,22.8,19.7,88,0,5.6,3.7,43,0.00,0.00,0.00,26.0,0.0,.
15min,AgWx,birchsprings,428,12JAN2017:19:45:00,23.0,19.8,88,0,2.4,1.1,104,0.00,0.00,0.00,26.0,0.0,.
15min,AgWx,birchsprings,428,12JAN2017:20:00:00,22.7,19.8,87,0,4.0,1.8,46,0.00,0.00,0.00,26.1,0.0,.
15min,AgWx,birchsprings,428,12JAN2017:20:15:00,22.4,19.3,87,0,5.7,3.3,35,0.00,0.00,0.00,26.0,0.0,.
15min,AgWx,birchsprings,428,12JAN2017:20:30:00,22.4,19.2,88,0,5.8,3.1,41,0.00,0.00,0.00,26.1,0.0,.
15min,AgWx,birchsprings,428,12JAN2017:20:45:00,22.5,19.3,87,0,2.2,1.0,102,0.00,0.00,0.00,26.0,0.0,.
15min,AgWx,birchsprings,428,12JAN2017:21:00:00,22.4,19.2,87,0,4.1,2.3,86,0.00,0.00,0.00,26.1,0.0,.
15min,AgWx,birchsprings,428,12JAN2017:21:15:00,21.7,18.7,87,0,5.9,4.0,50,0.00,0.00,0.00,26.1,0.0,.
15min,AgWx,birchsprings,428,12JAN2017:21:30:00,21.5,18.2,87,0,5.0,3.0,25,0.00,0.00,0.00,26.0,0.0,.
15min,AgWx,birchsprings,428,12JAN2017:21:45:00,21.2,17.6,86,0,6.0,3.7,31,0.00,0.00,0.00,26.0,0.0,.
15min,AgWx,birchsprings,428,12JAN2017:22:00:00,21.2,17.5,85,0,4.1,2.3,2.0,0.00,0.00,0.00,26.1,0.0,.
15min,AgWx,birchsprings,428,12JAN2017:22:15:00,20.9,16.9,84,0,4.4,2.9,4.1,0.00,0.00,0.00,26.1,0.0,.
15min,AgWx,birchsprings,428,12JAN2017:22:30:00,21.0,17.0,84,0,2.4,1.4,1.7,0.00,0.00,0.00,26.0,0.0,.
15min,AgWx,birchsprings,428,12JAN2017:22:45:00,21.1,16.8,83,0,2.4,0.6,290,0.00,0.00,0.00,26.1,0.0,.
15min,AgWx,birchsprings,428,12JAN2017:23:00:00,21.1,17.0,84,0,2.4,0.7,349,0.00,0.00,0.00,26.1,0.0,.
15min,AgWx,birchsprings,428,12JAN2017:23:15:00,21.0,16.7,83,0,3.0,1.7,357,0.00,0.00,0.00,26.1,0.0,.
15min,AgWx,birchsprings,428,12JAN2017:23:30:00,21.0,16.2,82,0,3.9,2.1,1.1,0.00,0.00,0.00,26.0,0.0,.
15min,AgWx,birchsprings,428,12JAN2017:23:45:00,20.9,16.2,82,0,3.6,2.0,14,0.00,0.00,0.00,26.1,0.0,.
15min,AgWx,blo,425,12JAN2017:00:00:00,23.4,16.6,73,0,7.5,4.5,235,0.00,0.00,0.00,34.9,36.2,50
15min,AgWx,blo,425,12JAN2017:00:15:00,21.2,16.0,77,0,4.5,3.1,214,0.00,0.00,0.00,34.9,36.3,50
15min,AgWx,blo,425,12JAN2017:00:30:00,20.3,15.7,79,0,6.6,4.9,225,0.00,0.00,0.00,34.9,36.3,50
15min,AgWx,blo,425,12JAN2017:00:45:00,25.9,17.1,75,0,6.7,4.5,259,0.00,0.00,0.00,34.9,36.2,50
15min,AgWx,blo,425,12JAN2017:01:00:00,22.6,16.4,73,0,4.8,2.8,247,0.00,0.00,0.00,34.9,36.3,50
15min,AgWx,blo,425,12JAN2017:01:15:00,21.5,15.6,76,0,6.3,4.0,238,0.00,0.00,0.00,34.9,36.3,50
15min,AgWx,blo,425,12JAN2017:01:30:00,24.3,16.5,77,0,11.4,7.1,248,0.00,0.00,0.00,34.8,36.3,50
15min,AgWx,blo,425,12JAN2017:01:45:00,22.8,17.2,77,0,8.9,5.6,269,0.00,0.00,0.00,34.9,36.2,50
15min,AgWx,blo,425,12JAN2017:02:00:00,22.7,17.0,76,0,9.9,4.5,270,0.00,0.00,0.00,34.9,36.2,50
15min,AgWx,blo,425,12JAN2017:02:15:00,22.0,16.7,78,0,6.7,4.6,298,0.00,0.00,0.00,34.9,36.3,50
15min,AgWx,blo,425,12JAN2017:02:30:00,22.5,16.4,78,0,9.0,5.5,265,0.00,0.00,0.00,34.8,36.3,50
15min,AgWx,blo,425,12JAN2017:02:45:00,21.6,16.7,77,0,7.9,5.4,261,0.00,0.00,0.00,34.9,36.2,50
15min,AgWx,blo,425,12JAN2017:03:00:00,21.8,16.1,80,0,10.1,6.5,227,0.00,0.00,0.00,34.8,36.2,50
15min,AgWx,blo,425,12JAN2017:03:15:00,23.4,15.9,76,0,10.1,7.4,249,0.00,0.00,0.00,34.8,36.3,50
15min,AgWx,blo,425,12JAN2017:03:30:00,21.7,15.2,78,0,8.8,6.3,235,0.00,0.00,0.00,34.8,36.2,50
15min,AgWx,blo,425,12JAN2017:03:45:00,23.4,16.7,77,0,9.4,7.3,267,0.00,0.00,0.00,34.9,36.2,50
15min,AgWx,blo,425,12JAN2017:04:00:00,22.8,17.1,78,0,8.3,4.7,286,0.00,0.00,0.00,34.9,36.3,50
15min,AgWx,blo,425,12JAN2017:04:15:00,23.1,16.7,78,0,6.0,3.6,291,0.00,0.00,0.00,34.9,36.2,50
15min,AgWx,blo,425,12JAN2017:04:30:00,22.6,17.0,78,0,5.4,3.4,302,0.00,0.00,0.00,34.9,36.2,50
15min,AgWx,blo,425,12JAN2017:04:45:00,22.4,16.8,79,0,2.7,1.8,304,0.00,0.00,0.00,34.8,36.2,50
15min,AgWx,blo,425,12JAN2017:05:00:00,21.7,16.7,79,0,2.9,2.4,305,0.00,0.00,0.00,34.8,36.3,50
15min,AgWx,blo,425,12JAN2017:05:15:00,19.3,15.9,80,0,3.1,2.0,248,0.00,0.00,0.00,34.8,36.3,50
15min,AgWx,blo,425,12JAN2017:05:30:00,19.9,15.5,83,0,3.8,2.5,236,0.00,0.00,0.00,34.8,36.2,50
15min,AgWx,blo,425,12JAN2017:05:45:00,20.5,15.6,80,0,4.6,3.0,270,0.00,0.00,0.00,34.9,36.3,50
15min,AgWx,blo,425,12JAN2017:06:00:00,18.4,14.3,81,0,8.9,4.8,239,0.00,0.00,0.00,34.9,36.3,50
15min,AgWx,blo,425,12JAN2017:06:15:00,18.2,13.7,85,0,7.2,5.7,229,0.00,0.00,0.00,34.9,36.2,50
15min,AgWx,blo,425,12JAN2017:06:30:00,19.3,15.3,83,0,5.8,3.6,237,0.00,0.00,0.00,34.9,36.2,50
15min,AgWx,blo,425,12JAN2017:06:45:00,20.3,15.3,84,0,3.4,2.2,267,0.00,0.00,0.00,34.9,36.2,50
15min,AgWx,blo,425,12JAN2017:07:00:00,21.2,15.7,79,0,3.5,2.2,309,0.00,0.00,0.00,34.8,36.2,50
15min,AgWx,blo,425,12JAN2017:07:15:00,20.4,15.1,78,0,3.4,1.5,324,0.00,0.00,0.00,34.9,36.2,50
15min,AgWx,blo,425,12JAN2017:07:30:00,19.0,14.5,79,0,5.3,2.4,334,0.00,0.00,0.00,34.9,36.2,50
15min,AgWx,blo,425,12JAN2017:07:45:00,17.9,14.7,85,1,4.1,2.9,317,0.00,0.00,0.00,34.8,36.2,50
15min,AgWx,blo,425,12JAN2017:08:00:00,15.2,12.9,84,4,4.8,3.6,246,0.00,0.00,0.00,34.8,36.2,50
15min,AgWx,blo,425,12JAN2017:08:15:00,15.6,12.2,88,15,5.2,4.3,225,0.00,0.00,0.00,34.9,36.2,50
15min,AgWx,blo,425,12JAN2017:08:30:00,16.6,13.0,85,38,6.0,4.1,233,0.00,0.00,0.00,34.9,36.2,50
15min,AgWx,blo,425,12JAN2017:08:45:00,18.4,14.0,86,65,4.2,3.1,239,0.00,0.00,0.00,34.8,36.2,50
15min,AgWx,blo,425,12JAN2017:09:00:00,17.8,13.9,84,84,2.6,2.3,215,0.00,0.00,0.00,34.9,36.2,50
15min,AgWx,blo,425,12JAN2017:09:15:00,17.8,14.0,83,109,3.9,3.2,229,0.00,0.00,0.00,34.8,36.2,50
15min,AgWx,blo,425,12JAN2017:09:30:00,17.5,13.2,83,119,4.1,3.3,227,0.00,0.00,0.00,34.9,36.2,50
15min,AgWx,blo,425,12JAN2017:09:45:00,18.3,13.4,82,145,4.0,3.2,228,0.00,0.00,0.00,34.9,36.2,50
15min,AgWx,blo,425,12JAN2017:10:00:00,19.6,14.4,82,168,3.4,2.7,235,0.00,0.00,0.00,34.8,36.2,50
15min,AgWx,blo,425,12JAN2017:10:15:00,20.6,15.2,82,188,4.7,2.9,226,0.00,0.00,0.00,34.9,36.2,50
15min,AgWx,blo,425,12JAN2017:10:30:00,20.7,15.6,80,184,5.9,3.3,200,0.00,0.00,0.00,34.9,36.2,50
15min,AgWx,blo,425,12JAN2017:10:45:00,21.6,16.5,82,182,4.6,3.2,147,0.00,0.00,0.00,34.8,36.2,50
15min,AgWx,blo,425,12JAN2017:11:00:00,21.5,17.9,87,207,5.1,3.4,66,0.00,0.00,0.00,34.8,36.1,50
15min,AgWx,blo,425,12JAN2017:11:15:00,23.4,18.0,84,223,3.5,1.1,67,0.00,0.00,0.00,34.8,36.2,50
15min,AgWx,blo,425,12JAN2017:11:30:00,24.3,18.3,79,230,2.5,1.3,93,0.00,0.00,0.00,34.9,36.1,50
15min,AgWx,blo,425,12JAN2017:11:45:00,26.4,19.5,79,247,1.1,0.4,117,0.00,0.00,0.00,34.9,36.2,50
15min,AgWx,blo,425,12JAN2017:12:00:00,22.5,19.0,82,230,3.5,1.5,171,0.00,0.00,0.00,34.8,36.2,50